Regional Weather Roundup
Issued by NWS

Home | Current Version | Previous Version | Text Only | Print | Product List | Glossary Off
Versions: 1 2 3 4 5 6 7 8 9 10 11 12 13 14 15 16 17 18 19 20 21 22 23 24 25 26 27 28 29 30 31 32 33 34 35 36 37 38 39 40 41 42 43 44 45 46 47 48 49 50

000
ASUS43 KLMK 262102
RWRKY
KENTUCKY REGIONAL WEATHER ROUNDUP
NATIONAL WEATHER SERVICE LOUISVILLE KY
400 PM EST SUN FEB 26 2017

NOTE "FAIR" INDICATES FEW OR NO CLOUDS BELOW 12,000 FEET
WITH NO SIGNIFICANT WEATHER AND/OR OBSTRUCTIONS TO VISIBILITY.

KYZ001>023-026-027-061>063-070>075-262200-
WESTERN AND SOUTH CENTRAL KENTUCKY

CITY           SKY/WX    TMP DP  RH WIND       PRES   REMARKS
PADUCAH        CLOUDY    55  18  23 S9        30.12S
HENDERSON      MOSUNNY   52  18  25 S10       30.13F
OWENSBORO      CLOUDY    51  17  26 S12       30.15S
HOPKINSVILLE   SUNNY     55  14  20 SE8       30.12F
BOWLING GREEN  SUNNY     53  15  22 S10       30.16F
GLASGOW        NOT AVBL
$$

KYZ024-025-028>034-038-045-046-053-262200-
NORTH CENTRAL KENTUCKY

CITY           SKY/WX    TMP DP  RH WIND       PRES   REMARKS
LOUISVILLE/SDF MOSUNNY   51   9  18 SW7       30.15F
LOUISVILLE/LOU SUNNY     50  13  22 S9        30.16F
FORT KNOX      SUNNY     49  16  26 S6        30.13F
$$

KYZ035>037-039>044-047>052-055>060-089>105-262200-
NORTHEAST KENTUCKY

CITY           SKY/WX    TMP DP  RH WIND       PRES   REMARKS
LEXINGTON      SUNNY     49  12  22 SW10G17   30.17F
COVINGTON      MOSUNNY   46  14  27 SW12      30.14S
FRANKFORT      SUNNY     50  14  23 S10       30.15F
$$

KYZ054-064>069-076>088-106>120-262200-
SOUTHEAST KENTUCKY

CITY           SKY/WX    TMP DP  RH WIND       PRES   REMARKS
JACKSON        SUNNY     48  16  27 VRB3      30.18S
LONDON         SUNNY     48  12  23 SW6       30.19S
SOMERSET       SUNNY     48  14  25 SE3       30.20F
MIDDLESBORO    SUNNY     50  17  27 SW6       30.20F
MONTICELLO     CLEAR     52  16  24 W10       30.19F
$$





USA.gov is the U.S. government's official web portal to all federal, state and local government web resources and services.